sat.trackr.live / text

‹ back to catalog

STARLINK-3538

NORAD 51996 · 2022-025AS

PAYLOAD ACTIVE UNKNOWN

§ Identity

Operator
Country
US
Launch date
2022-03-09
Launch site
AFETR
Launch vehicle
Mass (kg)
RCS (m²)

Purposes: comms

External: N2YO · Heavens-Above · Gunter

§ Orbital elements

Epoch: 2026-05-25T02:27:24.579648Z

Period
95.44 min
Inclination
53.2133°
Eccentricity
0.0001165
Mean motion
15.08836207 rev/d
Perigee alt
538.9 km
Apogee alt
540.6 km
Semi-major
6,917.9 km
B*
3.8117e-5
RAAN
36.0895°
Arg perigee
81.6080°
Mean anomaly
278.5044°
Rev number
23,245

§ Raw data

STARLINK-35381 51996U 22025AS  26145.10236782  .00000319  00000+0  38117-4 0  99942 51996  53.2133  36.0895 0001165  81.6080 278.5044 15.08836207232452

JSON: /api/v1/satellites/51996 · /tle

For live sub-satellite position, see the globe view (requires WebGL).

§ Visibility from observer

Set your observer location to see the next 7 days of passes ≥ 10°. The values pass through the URL so the page stays shareable.

No JS? Fill the form by hand. The geolocation button needs JavaScript.